L2B YMHB-YSSY

Flight info

Callsign L2B
Flight time 1h 43m
Altitude 40000
Route TASUM H111 LT W218 VIMAP/N0453F410 Y327 MAKRL/N0454F400 J163 CB/N0455F410 W423 CULIN Y59 RIVET
Aircraft CL60/M-SBDE1E2E3FGHIJ1J4J5J7M3RWXYZ/LB1V1D1

Departure

Time 2026-04-21 11:23
Airport Hobart International Airport (YMHB)

Arrival

Time 2026-04-21 13:06
Airport Sydney Kingsford Smith International Airport (YSSY)
Time Latitude Longitude Altitude Speed Heading
2026-04-21 11:08 -42.83777 147.50720 19 ft 0 kts 274°
2026-04-21 11:16 -42.83776 147.50716 19 ft 3 kts 296°
2026-04-21 11:17 -42.83744 147.50723 19 ft 5 kts 34°
2026-04-21 11:17 -42.83710 147.50766 18 ft 8 kts 56°
2026-04-21 11:17 -42.83683 147.50832 17 ft 8 kts 55°
2026-04-21 11:17 -42.83690 147.50913 17 ft 9 kts 133°
2026-04-21 11:18 -42.83732 147.50969 16 ft 7 kts 135°
2026-04-21 11:18 -42.83775 147.51027 16 ft 10 kts 135°
2026-04-21 11:18 -42.83830 147.51102 16 ft 10 kts 134°
2026-04-21 11:18 -42.83864 147.51176 16 ft 8 kts 83°
2026-04-21 11:19 -42.83834 147.51236 16 ft 6 kts 45°
2026-04-21 11:19 -42.83810 147.51268 16 ft 3 kts 44°
2026-04-21 11:19 -42.83788 147.51297 16 ft 6 kts 45°
2026-04-21 11:19 -42.83763 147.51361 16 ft 9 kts 94°
2026-04-21 11:20 -42.83812 147.51445 17 ft 13 kts 135°
2026-04-21 11:20 -42.83884 147.51544 18 ft 16 kts 134°
2026-04-21 11:20 -42.83973 147.51665 19 ft 19 kts 134°
2026-04-21 11:20 -42.84075 147.51804 20 ft 22 kts 135°
2026-04-21 11:21 -42.84190 147.51959 21 ft 24 kts 134°
2026-04-21 11:21 -42.84308 147.52119 22 ft 22 kts 135°
2026-04-21 11:21 -42.84410 147.52258 23 ft 19 kts 134°
2026-04-21 11:21 -42.84482 147.52339 23 ft 8 kts 157°
2026-04-21 11:22 -42.84479 147.52361 23 ft 5 kts 298°
2026-04-21 11:22 -42.84472 147.52345 22 ft 0 kts 309°
2026-04-21 11:22 -42.84224 147.52006 22 ft 105 kts 315°
2026-04-21 11:22 -42.83526 147.51036 179 ft 167 kts 315°
2026-04-21 11:23 -42.82699 147.49873 993 ft 179 kts 316°
2026-04-21 11:23 -42.81912 147.48625 1887 ft 179 kts 312°
2026-04-21 11:23 -42.81148 147.47322 2799 ft 181 kts 315°
2026-04-21 11:23 -42.80269 147.46008 3303 ft 190 kts 316°
2026-04-21 11:24 -42.79302 147.44655 3816 ft 211 kts 318°
2026-04-21 11:24 -42.78257 147.43224 4404 ft 222 kts 318°
2026-04-21 11:24 -42.77091 147.41704 5140 ft 243 kts 319°
2026-04-21 11:24 -42.75848 147.40096 5987 ft 252 kts 318°
2026-04-21 11:25 -42.74571 147.38435 6874 ft 261 kts 318°
2026-04-21 11:25 -42.73260 147.36723 7657 ft 271 kts 318°
2026-04-21 11:25 -42.71895 147.34935 8015 ft 274 kts 318°
2026-04-21 11:25 -42.70521 147.33124 8250 ft 272 kts 318°
2026-04-21 11:26 -42.69175 147.31314 8741 ft 274 kts 317°
2026-04-21 11:26 -42.67817 147.29475 9244 ft 276 kts 317°
2026-04-21 11:26 -42.66449 147.27622 9747 ft 278 kts 317°
2026-04-21 11:26 -42.65089 147.25778 10249 ft 281 kts 317°
2026-04-21 11:27 -42.63694 147.23888 10769 ft 283 kts 317°
2026-04-21 11:27 -42.62314 147.22015 11284 ft 285 kts 317°
2026-04-21 11:27 -42.60897 147.20102 11810 ft 287 kts 319°
2026-04-21 11:27 -42.59256 147.18581 12323 ft 285 kts 339°
2026-04-21 11:28 -42.57352 147.18004 12816 ft 287 kts 359°
2026-04-21 11:28 -42.55381 147.18469 13333 ft 290 kts 21°
2026-04-21 11:28 -42.53631 147.19849 13856 ft 294 kts 33°
2026-04-21 11:28 -42.51942 147.21410 14399 ft 296 kts 33°
2026-04-21 11:29 -42.50234 147.22975 14939 ft 299 kts 33°
2026-04-21 11:29 -42.48529 147.24539 15483 ft 302 kts 33°
2026-04-21 11:29 -42.46802 147.26163 16039 ft 305 kts 34°
2026-04-21 11:29 -42.45058 147.27811 16596 ft 308 kts 34°
2026-04-21 11:30 -42.43294 147.29475 17159 ft 311 kts 34°
2026-04-21 11:30 -42.41515 147.31154 17730 ft 315 kts 34°
2026-04-21 11:30 -42.39717 147.32848 18307 ft 318 kts 34°
2026-04-21 11:30 -42.37875 147.34582 18904 ft 322 kts 34°
2026-04-21 11:31 -42.36033 147.36316 19489 ft 326 kts 34°
2026-04-21 11:31 -42.34156 147.38042 20087 ft 330 kts 30°
2026-04-21 11:31 -42.32031 147.39191 20677 ft 334 kts 11°
2026-04-21 11:31 -42.29725 147.39282 21270 ft 338 kts 352°
2026-04-21 11:32 -42.27412 147.38739 21889 ft 342 kts 349°
2026-04-21 11:32 -42.25067 147.38167 22528 ft 345 kts 349°
2026-04-21 11:32 -42.22695 147.37595 23170 ft 349 kts 349°
2026-04-21 11:32 -42.20301 147.37016 23817 ft 354 kts 349°
2026-04-21 11:33 -42.17871 147.36430 24475 ft 358 kts 349°
2026-04-21 11:33 -42.15410 147.35838 25148 ft 363 kts 349°
2026-04-21 11:33 -42.12900 147.35234 25839 ft 367 kts 349°
2026-04-21 11:33 -42.10388 147.34630 26533 ft 372 kts 349°
2026-04-21 11:34 -42.07842 147.34019 27236 ft 377 kts 349°
2026-04-21 11:34 -42.05261 147.33400 27948 ft 381 kts 349°
2026-04-21 11:34 -42.02644 147.32774 28674 ft 386 kts 349°
2026-04-21 11:34 -41.99988 147.32138 29410 ft 389 kts 349°
2026-04-21 11:35 -41.97349 147.31508 30051 ft 394 kts 349°
2026-04-21 11:35 -41.94611 147.30855 30570 ft 401 kts 349°
2026-04-21 11:35 -41.91874 147.30202 31125 ft 406 kts 349°
2026-04-21 11:35 -41.89061 147.29532 31709 ft 410 kts 349°
2026-04-21 11:36 -41.86222 147.28856 32272 ft 414 kts 349°
2026-04-21 11:36 -41.83370 147.28178 32804 ft 417 kts 349°
2026-04-21 11:36 -41.80540 147.27506 33300 ft 420 kts 349°
2026-04-21 11:36 -41.77652 147.26820 33749 ft 424 kts 349°
2026-04-21 11:37 -41.74753 147.26134 34203 ft 427 kts 349°
2026-04-21 11:37 -41.71833 147.25442 34814 ft 427 kts 349°
2026-04-21 11:37 -41.68924 147.24754 35509 ft 424 kts 349°
2026-04-21 11:37 -41.66023 147.24069 36183 ft 422 kts 349°
2026-04-21 11:38 -41.63170 147.23396 36822 ft 419 kts 349°
2026-04-21 11:38 -41.60303 147.22719 37350 ft 418 kts 349°
2026-04-21 11:38 -41.57423 147.22040 37823 ft 418 kts 349°
2026-04-21 11:38 -41.54555 147.21416 38255 ft 419 kts 352°
2026-04-21 11:39 -41.51660 147.21228 38649 ft 421 kts 358°
2026-04-21 11:39 -41.48732 147.21190 39015 ft 421 kts 358°
2026-04-21 11:39 -41.45824 147.21147 39375 ft 422 kts 358°
2026-04-21 11:39 -41.42840 147.21100 39404 ft 426 kts 358°
2026-04-21 11:40 -41.37203 147.21013 39395 ft 426 kts 358°
2026-04-21 11:40 -41.31291 147.20918 39392 ft 422 kts 358°
2026-04-21 11:41 -41.25433 147.20825 39392 ft 422 kts 358°
2026-04-21 11:41 -41.19582 147.20729 39393 ft 421 kts 358°
2026-04-21 11:42 -41.13736 147.20633 39400 ft 421 kts 358°
2026-04-21 11:42 -41.07865 147.20537 39402 ft 421 kts 358°
2026-04-21 11:43 -41.02017 147.20441 39403 ft 422 kts 358°
2026-04-21 11:43 -40.96143 147.20343 39405 ft 422 kts 358°
2026-04-21 11:44 -40.90270 147.20245 39405 ft 422 kts 358°
2026-04-21 11:44 -40.84415 147.20149 39405 ft 421 kts 358°
2026-04-21 11:45 -40.78588 147.20053 39400 ft 421 kts 358°
2026-04-21 11:45 -40.72720 147.19955 39399 ft 421 kts 358°
2026-04-21 11:46 -40.66881 147.20259 39406 ft 423 kts
2026-04-21 11:46 -40.61266 147.22470 39396 ft 425 kts 23°
2026-04-21 11:47 -40.55864 147.25639 39398 ft 425 kts 24°
2026-04-21 11:47 -40.50458 147.28803 39395 ft 426 kts 24°
2026-04-21 11:48 -40.45073 147.31947 39399 ft 425 kts 24°
2026-04-21 11:48 -40.39668 147.35100 39394 ft 426 kts 24°
2026-04-21 11:49 -40.34248 147.38254 39400 ft 426 kts 24°
2026-04-21 11:49 -40.28844 147.41394 39403 ft 426 kts 24°
2026-04-21 11:50 -40.23432 147.44533 39400 ft 427 kts 24°
2026-04-21 11:50 -40.18028 147.47661 39399 ft 427 kts 24°
2026-04-21 11:51 -40.12583 147.50809 39392 ft 427 kts 24°
2026-04-21 11:51 -40.07166 147.53934 39382 ft 427 kts 24°
2026-04-21 11:52 -40.01739 147.57060 39386 ft 427 kts 24°
2026-04-21 11:52 -39.96294 147.60190 39392 ft 427 kts 24°
2026-04-21 11:53 -39.90892 147.63290 39391 ft 427 kts 24°
2026-04-21 11:53 -39.85428 147.66422 39391 ft 427 kts 23°
2026-04-21 11:54 -39.79991 147.69531 39390 ft 428 kts 23°
2026-04-21 11:54 -39.74563 147.72630 39389 ft 428 kts 23°
2026-04-21 11:55 -39.69092 147.75749 39391 ft 429 kts 23°
2026-04-21 11:55 -39.63623 147.78860 39392 ft 430 kts 23°
2026-04-21 11:56 -39.58159 147.81964 39391 ft 430 kts 23°
2026-04-21 11:56 -39.52690 147.85066 39392 ft 430 kts 23°
2026-04-21 11:57 -39.47236 147.88153 39388 ft 430 kts 23°
2026-04-21 11:57 -39.41771 147.91243 39387 ft 430 kts 23°
2026-04-21 11:58 -39.36292 147.94333 39388 ft 430 kts 23°
2026-04-21 11:58 -39.30838 147.97404 39386 ft 430 kts 23°
2026-04-21 11:59 -39.25324 148.00505 39388 ft 432 kts 22°
2026-04-21 11:59 -39.19828 148.03590 39392 ft 433 kts 23°
2026-04-21 12:00 -39.14305 148.06685 39389 ft 433 kts 22°
2026-04-21 12:00 -39.08781 148.09775 39386 ft 433 kts 23°
2026-04-21 12:01 -39.03305 148.12833 39386 ft 432 kts 23°
2026-04-21 12:01 -38.97769 148.15918 39386 ft 432 kts 22°
2026-04-21 12:02 -38.89529 148.20503 39390 ft 432 kts 23°
2026-04-21 12:03 -38.83975 148.23585 39398 ft 433 kts 22°
2026-04-21 12:03 -38.78452 148.26646 39402 ft 435 kts 22°
2026-04-21 12:04 -38.72902 148.29717 39398 ft 435 kts 22°
2026-04-21 12:04 -38.67341 148.32788 39396 ft 436 kts 23°
2026-04-21 12:05 -38.61784 148.35852 39396 ft 436 kts 23°
2026-04-21 12:05 -38.56231 148.38908 39395 ft 436 kts 22°
2026-04-21 12:06 -38.50652 148.41927 39388 ft 436 kts 19°
2026-04-21 12:06 -38.44777 148.43713 39390 ft 435 kts
2026-04-21 12:07 -38.38846 148.45192 39391 ft 435 kts
2026-04-21 12:07 -38.32958 148.46661 39381 ft 435 kts 10°
2026-04-21 12:08 -38.26943 148.48160 39376 ft 434 kts
2026-04-21 12:08 -38.21055 148.49623 39375 ft 434 kts
2026-04-21 12:09 -38.15109 148.51100 39375 ft 435 kts
2026-04-21 12:09 -38.09175 148.52571 39372 ft 435 kts
2026-04-21 12:10 -38.03242 148.54039 39376 ft 435 kts
2026-04-21 12:10 -37.97324 148.55501 39372 ft 436 kts
2026-04-21 12:11 -37.91347 148.56975 39376 ft 436 kts
2026-04-21 12:11 -37.85380 148.58444 39378 ft 437 kts
2026-04-21 12:12 -37.79412 148.59912 39371 ft 438 kts
2026-04-21 12:12 -37.73453 148.61375 39388 ft 438 kts
2026-04-21 12:13 -37.67474 148.62840 39386 ft 437 kts
2026-04-21 12:13 -37.61546 148.64291 39371 ft 437 kts
2026-04-21 12:14 -37.55577 148.65749 39391 ft 437 kts
2026-04-21 12:14 -37.49597 148.67207 39379 ft 437 kts
2026-04-21 12:15 -37.43654 148.68654 39379 ft 437 kts
2026-04-21 12:15 -37.37683 148.70105 39383 ft 437 kts
2026-04-21 12:16 -37.31711 148.71555 39375 ft 438 kts
2026-04-21 12:16 -37.25747 148.72998 39388 ft 438 kts
2026-04-21 12:17 -37.19738 148.74452 39378 ft 439 kts
2026-04-21 12:17 -37.13735 148.75902 39386 ft 439 kts
2026-04-21 12:18 -37.07767 148.77341 39394 ft 439 kts
2026-04-21 12:18 -37.01798 148.78777 39402 ft 438 kts
2026-04-21 12:19 -36.95800 148.80219 39395 ft 438 kts
2026-04-21 12:19 -36.89808 148.81656 39397 ft 438 kts
2026-04-21 12:20 -36.83818 148.83090 39394 ft 438 kts
2026-04-21 12:20 -36.77847 148.84518 39395 ft 439 kts
2026-04-21 12:21 -36.71836 148.85953 39396 ft 440 kts
2026-04-21 12:21 -36.65803 148.87392 39397 ft 441 kts
2026-04-21 12:22 -36.59811 148.88818 39403 ft 441 kts
2026-04-21 12:22 -36.53783 148.90250 39400 ft 441 kts
2026-04-21 12:23 -36.47748 148.91682 39399 ft 441 kts
2026-04-21 12:23 -36.41697 148.93115 39387 ft 441 kts
2026-04-21 12:24 -36.35661 148.94542 39382 ft 441 kts
2026-04-21 12:24 -36.29665 148.95958 39378 ft 441 kts
2026-04-21 12:25 -36.23635 148.97378 39378 ft 442 kts
2026-04-21 12:25 -36.17600 148.98799 39371 ft 442 kts
2026-04-21 12:26 -36.11540 149.00223 39370 ft 442 kts
2026-04-21 12:26 -36.05516 149.01636 39371 ft 442 kts
2026-04-21 12:27 -35.99452 149.03056 39371 ft 442 kts
2026-04-21 12:27 -35.93418 149.04468 39379 ft 443 kts
2026-04-21 12:28 -35.87339 149.05887 39390 ft 443 kts
2026-04-21 12:28 -35.81297 149.07295 39389 ft 444 kts
2026-04-21 12:29 -35.75212 149.08711 39384 ft 444 kts
2026-04-21 12:29 -35.69150 149.10121 39381 ft 443 kts
2026-04-21 12:30 -35.63102 149.11525 39383 ft 443 kts
2026-04-21 12:30 -35.57066 149.12923 39385 ft 443 kts
2026-04-21 12:31 -35.50979 149.14331 39389 ft 443 kts
2026-04-21 12:31 -35.44933 149.15727 39386 ft 443 kts
2026-04-21 12:32 -35.38884 149.17122 39391 ft 443 kts
2026-04-21 12:32 -35.32811 149.18520 39389 ft 443 kts
2026-04-21 12:33 -35.26779 149.20033 39387 ft 446 kts 13°
2026-04-21 12:33 -35.20805 149.22197 39387 ft 446 kts 14°
2026-04-21 12:34 -35.14854 149.24353 39386 ft 446 kts 14°
2026-04-21 12:34 -35.08884 149.26509 39383 ft 446 kts 14°
2026-04-21 12:35 -35.02940 149.28651 39380 ft 446 kts 14°
2026-04-21 12:35 -34.99976 149.29717 39134 ft 450 kts 14°
2026-04-21 12:35 -34.96946 149.30806 38558 ft 451 kts 14°
2026-04-21 12:35 -34.93955 149.31880 38004 ft 450 kts 14°
2026-04-21 12:36 -34.90953 149.32958 37443 ft 448 kts 14°
2026-04-21 12:36 -34.87963 149.34029 36870 ft 447 kts 14°
2026-04-21 12:36 -34.84980 149.35098 36282 ft 446 kts 15°
2026-04-21 12:36 -34.82067 149.36319 35679 ft 446 kts 21°
2026-04-21 12:37 -34.79245 149.37958 35045 ft 447 kts 29°
2026-04-21 12:37 -34.76632 149.39970 34431 ft 446 kts 37°
2026-04-21 12:37 -34.74240 149.42334 33814 ft 447 kts 44°
2026-04-21 12:37 -34.72098 149.45018 33085 ft 447 kts 51°
2026-04-21 12:38 -34.70217 149.48051 32493 ft 442 kts 59°
2026-04-21 12:38 -34.68673 149.51231 31907 ft 437 kts 65°
2026-04-21 12:38 -34.67272 149.54452 31346 ft 434 kts 65°
2026-04-21 12:38 -34.65864 149.57683 30768 ft 431 kts 65°
2026-04-21 12:39 -34.64478 149.60858 30207 ft 428 kts 65°
2026-04-21 12:39 -34.63094 149.64026 29639 ft 425 kts 65°
2026-04-21 12:39 -34.61715 149.67177 29080 ft 421 kts 65°
2026-04-21 12:39 -34.60341 149.70314 28519 ft 418 kts 65°
2026-04-21 12:40 -34.59000 149.73370 27972 ft 414 kts 65°
2026-04-21 12:40 -34.57647 149.76448 27650 ft 404 kts 65°
2026-04-21 12:40 -34.56350 149.79396 27429 ft 393 kts 65°
2026-04-21 12:40 -34.55080 149.82281 27190 ft 390 kts 65°
2026-04-21 12:41 -34.53789 149.85217 26843 ft 394 kts 65°
2026-04-21 12:41 -34.52505 149.88132 26320 ft 394 kts 65°
2026-04-21 12:41 -34.51213 149.91061 25810 ft 391 kts 65°
2026-04-21 12:41 -34.49939 149.93947 25294 ft 388 kts 65°
2026-04-21 12:42 -34.48677 149.96803 24780 ft 385 kts 65°
2026-04-21 12:42 -34.47420 149.99644 24272 ft 382 kts 65°
2026-04-21 12:42 -34.46167 150.02473 23760 ft 380 kts 65°
2026-04-21 12:42 -34.44927 150.05272 23263 ft 377 kts 65°
2026-04-21 12:43 -34.43697 150.08046 22762 ft 373 kts 65°
2026-04-21 12:43 -34.42478 150.10792 22273 ft 368 kts 65°
2026-04-21 12:43 -34.41288 150.13469 21798 ft 364 kts 65°
2026-04-21 12:43 -34.40089 150.16167 21309 ft 361 kts 65°
2026-04-21 12:44 -34.38907 150.18823 20834 ft 356 kts 65°
2026-04-21 12:44 -34.37754 150.21411 20382 ft 351 kts 65°
2026-04-21 12:44 -34.36599 150.24000 19903 ft 348 kts 65°
2026-04-21 12:44 -34.35465 150.26544 19461 ft 343 kts 65°
2026-04-21 12:45 -34.34335 150.29076 18995 ft 339 kts 65°
2026-04-21 12:45 -34.33232 150.31545 18568 ft 335 kts 65°
2026-04-21 12:45 -34.32131 150.34007 18122 ft 332 kts 65°
2026-04-21 12:45 -34.31033 150.36462 17679 ft 330 kts 65°
2026-04-21 12:46 -34.29953 150.38876 17240 ft 329 kts 65°
2026-04-21 12:46 -34.28867 150.41303 16813 ft 326 kts 65°
2026-04-21 12:46 -34.27797 150.43690 16383 ft 322 kts 65°
2026-04-21 12:46 -34.26738 150.46062 15961 ft 319 kts 65°
2026-04-21 12:47 -34.25702 150.48379 15535 ft 315 kts 65°
2026-04-21 12:47 -34.24656 150.50719 15104 ft 312 kts 65°
2026-04-21 12:47 -34.23634 150.53000 14690 ft 306 kts 65°
2026-04-21 12:47 -34.22640 150.55219 14309 ft 300 kts 65°
2026-04-21 12:48 -34.21661 150.57402 13875 ft 296 kts 64°
2026-04-21 12:48 -34.20674 150.59602 13394 ft 294 kts 64°
2026-04-21 12:48 -34.19714 150.61745 12923 ft 292 kts 64°
2026-04-21 12:48 -34.18744 150.63905 12446 ft 290 kts 65°
2026-04-21 12:49 -34.17799 150.66008 12055 ft 285 kts 64°
2026-04-21 12:49 -34.16861 150.68092 11669 ft 281 kts 64°
2026-04-21 12:49 -34.15929 150.70161 11287 ft 276 kts 64°
2026-04-21 12:49 -34.15029 150.72162 10919 ft 271 kts 64°
2026-04-21 12:50 -34.14132 150.74150 10580 ft 265 kts 64°
2026-04-21 12:50 -34.13266 150.76070 10229 ft 261 kts 64°
2026-04-21 12:50 -34.12399 150.77992 9881 ft 257 kts 64°
2026-04-21 12:50 -34.11557 150.79857 9541 ft 253 kts 64°
2026-04-21 12:51 -34.10715 150.81722 9202 ft 249 kts 64°
2026-04-21 12:51 -34.09903 150.83519 8878 ft 245 kts 65°
2026-04-21 12:51 -34.09087 150.85332 8590 ft 240 kts 65°
2026-04-21 12:51 -34.08315 150.87045 8436 ft 229 kts 65°
2026-04-21 12:52 -34.07567 150.88701 8310 ft 222 kts 65°
2026-04-21 12:52 -34.06826 150.90349 8063 ft 224 kts 65°
2026-04-21 12:52 -34.06080 150.92003 7879 ft 221 kts 65°
2026-04-21 12:52 -34.05350 150.93625 7678 ft 222 kts 65°
2026-04-21 12:53 -34.04612 150.95258 7482 ft 221 kts 65°
2026-04-21 12:53 -34.03804 150.96828 7271 ft 224 kts 51°
2026-04-21 12:53 -34.02449 150.97746 7096 ft 229 kts 12°
2026-04-21 12:53 -34.00854 150.97807 7093 ft 230 kts 358°
2026-04-21 12:54 -33.99235 150.97575 7106 ft 235 kts 354°
2026-04-21 12:54 -33.97595 150.97293 6975 ft 238 kts 354°
2026-04-21 12:54 -33.95956 150.97008 6816 ft 235 kts 353°
2026-04-21 12:54 -33.94353 150.96733 6681 ft 234 kts 354°
2026-04-21 12:55 -33.92726 150.96455 6424 ft 235 kts 354°
2026-04-21 12:55 -33.91126 150.96181 6166 ft 227 kts 354°
2026-04-21 12:55 -33.89598 150.95914 5916 ft 215 kts 354°
2026-04-21 12:55 -33.88132 150.95776 5663 ft 205 kts
2026-04-21 12:56 -33.86713 150.95993 5389 ft 204 kts 11°
2026-04-21 12:56 -33.85300 150.96239 5114 ft 203 kts 12°
2026-04-21 12:56 -33.83911 150.96484 4839 ft 202 kts 13°
2026-04-21 12:56 -33.82558 150.96931 4530 ft 201 kts 22°
2026-04-21 12:57 -33.81257 150.97452 4369 ft 195 kts 23°
2026-04-21 12:57 -33.79971 150.98065 4175 ft 195 kts 39°
2026-04-21 12:57 -33.79026 150.99132 4291 ft 191 kts 51°
2026-04-21 12:57 -33.78093 151.00308 4072 ft 194 kts 51°
2026-04-21 12:58 -33.77159 151.01451 3932 ft 190 kts 51°
2026-04-21 12:58 -33.76219 151.02597 3805 ft 191 kts 50°
2026-04-21 12:58 -33.75309 151.03751 3680 ft 190 kts 53°
2026-04-21 12:58 -33.74446 151.04958 3495 ft 189 kts 59°
2026-04-21 12:59 -33.73799 151.06294 3294 ft 184 kts 70°
2026-04-21 12:59 -33.73386 151.07715 3102 ft 175 kts 81°
2026-04-21 12:59 -33.73277 151.09102 3003 ft 153 kts 99°
2026-04-21 12:59 -33.73502 151.10283 3021 ft 147 kts 114°
2026-04-21 13:00 -33.73967 151.11383 2976 ft 148 kts 136°
2026-04-21 13:00 -33.74870 151.11983 2990 ft 150 kts 160°
2026-04-21 13:00 -33.75871 151.12363 2999 ft 150 kts 162°
2026-04-21 13:00 -33.76870 151.12703 2997 ft 149 kts 162°
2026-04-21 13:01 -33.77894 151.13026 2999 ft 149 kts 163°
2026-04-21 13:01 -33.78880 151.13354 2963 ft 148 kts 162°
2026-04-21 13:01 -33.79890 151.13647 2846 ft 149 kts 166°
2026-04-21 13:01 -33.80903 151.13942 2579 ft 150 kts 162°
2026-04-21 13:02 -33.81911 151.14252 2147 ft 150 kts 166°
2026-04-21 13:02 -33.82879 151.14560 1907 ft 142 kts 164°
2026-04-21 13:02 -33.84739 151.15062 1532 ft 128 kts 167°
2026-04-21 13:03 -33.85619 151.15263 1424 ft 131 kts 165°
2026-04-21 13:03 -33.86538 151.15515 1343 ft 139 kts 167°
2026-04-21 13:03 -33.87424 151.15732 1270 ft 117 kts 167°
2026-04-21 13:03 -33.88209 151.15909 1038 ft 111 kts 166°
2026-04-21 13:04 -33.88935 151.16121 866 ft 106 kts 165°
2026-04-21 13:04 -33.89666 151.16306 710 ft 111 kts 167°
2026-04-21 13:04 -33.90426 151.16504 607 ft 108 kts 165°
2026-04-21 13:04 -33.91155 151.16701 466 ft 104 kts 166°
2026-04-21 13:05 -33.91858 151.16872 281 ft 104 kts 166°
2026-04-21 13:05 -33.92560 151.17053 149 ft 101 kts 167°
2026-04-21 13:05 -33.93237 151.17233 36 ft 97 kts 166°
2026-04-21 13:05 -33.93830 151.17395 18 ft 71 kts 170°
2026-04-21 13:06 -33.94125 151.17470 19 ft 30 kts 167°
2026-04-21 13:06 -33.94323 151.17548 20 ft 29 kts 154°
2026-04-21 13:06 -33.94447 151.17644 21 ft 19 kts 142°
2026-04-21 13:06 -33.94521 151.17732 22 ft 12 kts 92°
2026-04-21 13:07 -33.94509 151.17804 22 ft 6 kts 82°
2026-04-21 13:07 -33.94555 151.17815 22 ft 1 kts 183°
2026-04-21 13:07 -33.94556 151.17815 22 ft 1 kts 193°
2026-04-21 13:07 -33.94545 151.17796 22 ft 7 kts 346°
2026-04-21 13:08 -33.94472 151.17780 21 ft 13 kts 346°
2026-04-21 13:08 -33.94379 151.17750 21 ft 15 kts 346°
2026-04-21 13:08 -33.94281 151.17722 20 ft 10 kts 345°
2026-04-21 13:08 -33.94191 151.17693 19 ft 15 kts 346°
2026-04-21 13:09 -33.94090 151.17662 19 ft 14 kts 346°
2026-04-21 13:09 -33.93992 151.17635 18 ft 14 kts 348°
2026-04-21 13:09 -33.93897 151.17618 18 ft 12 kts 19°
2026-04-21 13:09 -33.93861 151.17694 18 ft 10 kts 74°
2026-04-21 13:10 -33.93837 151.17795 19 ft 13 kts 74°
2026-04-21 13:10 -33.93813 151.17894 19 ft 10 kts 74°
2026-04-21 13:10 -33.93797 151.17964 20 ft 6 kts 74°
2026-04-21 13:10 -33.93781 151.18030 21 ft 9 kts 74°
2026-04-21 13:11 -33.93760 151.18123 21 ft 13 kts 75°
2026-04-21 13:11 -33.93735 151.18225 22 ft 11 kts 74°
2026-04-21 13:11 -33.93710 151.18330 23 ft 14 kts 74°
2026-04-21 13:11 -33.93686 151.18436 23 ft 12 kts 75°
2026-04-21 13:12 -33.93658 151.18550 24 ft 14 kts 74°
2026-04-21 13:12 -33.93634 151.18652 24 ft 11 kts 74°
2026-04-21 13:12 -33.93611 151.18753 24 ft 14 kts 74°
2026-04-21 13:12 -33.93572 151.18842 25 ft 10 kts 19°
2026-04-21 13:13 -33.93489 151.18858 25 ft 10 kts
2026-04-21 13:13 -33.93451 151.18886 25 ft 7 kts 91°
2026-04-21 13:13 -33.93486 151.18942 25 ft 7 kts 145°
2026-04-21 13:13 -33.93517 151.18979 25 ft 7 kts 107°
2026-04-21 13:14 -33.93501 151.19009 25 ft 0 kts 348°